Coatesville, PA

1:35 AM EDT on May 23, 2017 (GMT -0400)
Chester County Carlson

Weather History for KMQS - March, 2013

Change the Weather History Date:

Saturday, March 2, 2013

  Actual Average (KILG) Record (KILG)
Temperature  
Mean Temperature 36 °F -  
Max Temperature 39 °F 50 °F 77 °F (1972)
Min Temperature 32 °F 31 °F 10 °F (1980)
Degree Days  
Heating Degree Days 30    
Moisture  
Dew Point 23 °F    
Average Humidity 65    
Maximum Humidity 75    
Minimum Humidity 52    
Precipitation  
Precipitation 0.00 in - - ()
Sea Level Pressure  
Sea Level Pressure 29.80 in    
Wind  
Wind Speed 10 mph (NNW)    
Max Wind Speed 15 mph    
Max Gust Speed 24 mph    
Visibility 10 miles    
Events      
Averages and records for this station are not official NWS values.
T = Trace of Precipitation, MM = Missing Value Source: NWS Daily Summary

Daily Weather History Graph

Daily Weather History Graph

Search for Another Location

Airport or City:

Trip Planner

Search our weather history database for the weather conditions in past years. The results will help you decide how hot, cold, wet, or windy it might be!

Date:

Astronomy

Mar. 02, 2013 Rise Set
Actual Time 6:34 AM EST 5:56 PM EST
Civil Twilight 6:07 AM EST 6:23 PM EST
Nautical Twilight 5:36 AM EST 6:55 PM EST
Astronomical Twilight 5:05 AM EST 7:26 PM EST
Moon 11:33 PM EST (3/2) 9:01 AM EST (3/2)
Length of Visible Light 12h 16m
Length of Day
11h 21m
Waning Gibbous, 74% of the Moon is Illuminated
Mar 2
Waning Gibbous
Mar 4
Last Quarter
Mar 11
New
Mar 19
First Quarter
Mar 27
Full

Hourly Weather History & Observations

Time (EST) Temp. Windchill Dew Point Humidity Pressure Visibility Wind Dir Wind Speed Gust Speed Precip Events Conditions
12:15 AM 33.8 °F 27.0 °F 26.6 °F 75% 29.82 in 10.0 mi NW 8.1 mph - N/A   Clear
12:35 AM 33.8 °F 25.8 °F 26.6 °F 75% 29.82 in 10.0 mi NW 10.4 mph - N/A   Clear
12:55 AM 32.0 °F 23.6 °F 24.8 °F 75% 29.82 in 10.0 mi NNW 10.4 mph - N/A   Clear
1:15 AM 32.0 °F 24.2 °F 24.8 °F 75% 29.82 in 10.0 mi NNW 9.2 mph - N/A   Clear
1:35 AM 32.0 °F 24.2 °F 24.8 °F 75% 29.82 in 10.0 mi NNW 9.2 mph - N/A   Clear
1:55 AM 32.0 °F 25.6 °F 24.8 °F 75% 29.82 in 10.0 mi NNW 6.9 mph - N/A   Mostly Cloudy
2:15 AM 32.0 °F 26.4 °F 24.8 °F 75% 29.82 in 10.0 mi NNW 5.8 mph - N/A   Overcast
2:35 AM 32.0 °F 24.8 °F 24.8 °F 75% 29.82 in 10.0 mi NW 8.1 mph - N/A   Overcast
2:55 AM 32.0 °F 24.8 °F 24.8 °F 75% 29.82 in 10.0 mi NNW 8.1 mph - N/A   Overcast
3:15 AM 32.0 °F 24.2 °F 24.8 °F 75% 29.82 in 10.0 mi NNW 9.2 mph - N/A   Overcast
3:35 AM 32.0 °F 26.4 °F 24.8 °F 75% 29.83 in 10.0 mi NW 5.8 mph - N/A   Overcast
3:55 AM 32.0 °F 24.8 °F 23.0 °F 69% 29.82 in 10.0 mi NNW 8.1 mph - N/A   Mostly Cloudy
4:15 AM 32.0 °F 23.6 °F 23.0 °F 69% 29.82 in 10.0 mi NNW 10.4 mph - N/A   Scattered Clouds
4:35 AM 32.0 °F 24.2 °F 23.0 °F 69% 29.82 in 10.0 mi NNW 9.2 mph - N/A   Scattered Clouds
4:55 AM 32.0 °F 23.6 °F 23.0 °F 69% 29.83 in 10.0 mi NNW 10.4 mph - N/A   Partly Cloudy
5:15 AM 32.0 °F 24.2 °F 23.0 °F 69% 29.82 in 10.0 mi NNW 9.2 mph - N/A   Mostly Cloudy
5:35 AM 32.0 °F 23.0 °F 23.0 °F 69% 29.82 in 10.0 mi NNW 11.5 mph - N/A   Scattered Clouds
5:55 AM 32.0 °F 23.6 °F 23.0 °F 69% 29.83 in 10.0 mi NNW 10.4 mph - N/A   Mostly Cloudy
6:15 AM 32.0 °F 24.8 °F 23.0 °F 69% 29.83 in 10.0 mi NNW 8.1 mph - N/A   Overcast
6:35 AM 32.0 °F 23.0 °F 23.0 °F 69% 29.83 in 10.0 mi NW 11.5 mph - N/A   Overcast
6:55 AM 32.0 °F 22.5 °F 23.0 °F 69% 29.83 in 10.0 mi NW 12.7 mph 16.1 mph N/A   Overcast
7:15 AM 32.0 °F 23.0 °F 23.0 °F 69% 29.83 in 10.0 mi NW 11.5 mph 18.4 mph N/A   Overcast
7:35 AM 32.0 °F 23.6 °F 23.0 °F 69% 29.83 in 10.0 mi NW 10.4 mph - N/A   Overcast
7:55 AM 32.0 °F 21.6 °F 23.0 °F 69% 29.83 in 10.0 mi NNW 15.0 mph - N/A   Overcast
8:15 AM 32.0 °F 22.5 °F 23.0 °F 69% 29.83 in 10.0 mi NNW 12.7 mph 16.1 mph N/A   Mostly Cloudy
8:35 AM 33.8 °F 24.8 °F 23.0 °F 65% 29.83 in 10.0 mi NW 12.7 mph 21.9 mph N/A   Overcast
8:55 AM 33.8 °F 24.3 °F 21.2 °F 60% 29.82 in 10.0 mi NW 13.8 mph 24.2 mph N/A   Overcast
9:15 AM 33.8 °F 23.9 °F 21.2 °F 60% 29.82 in 10.0 mi NW 15.0 mph 21.9 mph N/A   Overcast
9:35 AM 33.8 °F 26.4 °F 21.2 °F 60% 29.82 in 10.0 mi North 9.2 mph 20.7 mph N/A   Overcast
9:55 AM 33.8 °F 25.3 °F 21.2 °F 60% 29.82 in 10.0 mi NNW 11.5 mph 19.6 mph N/A   Overcast
10:15 AM 33.8 °F 24.8 °F 21.2 °F 60% 29.82 in 10.0 mi NNW 12.7 mph - N/A   Mostly Cloudy
10:35 AM 33.8 °F 25.8 °F 23.0 °F 65% 29.82 in 10.0 mi North 10.4 mph - N/A   Overcast
10:55 AM 33.8 °F 25.3 °F 23.0 °F 65% 29.82 in 10.0 mi NNW 11.5 mph 18.4 mph N/A   Overcast
11:15 AM 33.8 °F 25.8 °F 23.0 °F 65% 29.82 in 10.0 mi NNW 10.4 mph - N/A   Overcast
11:35 AM 35.6 °F 27.5 °F 23.0 °F 60% 29.82 in 10.0 mi WNW 11.5 mph - N/A   Overcast
11:55 AM 35.6 °F 28.0 °F 23.0 °F 60% 29.81 in 10.0 mi West 10.4 mph - N/A   Overcast
12:15 PM 35.6 °F 29.9 °F 23.0 °F 60% 29.81 in 10.0 mi WNW 6.9 mph - N/A   Mostly Cloudy
12:35 PM 35.6 °F 28.6 °F 23.0 °F 60% 29.79 in 10.0 mi NW 9.2 mph - N/A   Mostly Cloudy
12:55 PM 35.6 °F 28.6 °F 23.0 °F 60% 29.78 in 10.0 mi WNW 9.2 mph - N/A   Mostly Cloudy
1:15 PM 37.4 °F 29.8 °F 23.0 °F 56% 29.77 in 10.0 mi NNW 11.5 mph - N/A   Mostly Cloudy
1:35 PM 37.4 °F 28.9 °F 23.0 °F 56% 29.77 in 10.0 mi WNW 13.8 mph - N/A   Mostly Cloudy
1:55 PM 37.4 °F 29.8 °F 23.0 °F 56% 29.76 in 10.0 mi NW 11.5 mph - N/A   Mostly Cloudy
2:15 PM 37.4 °F 28.9 °F 23.0 °F 56% 29.76 in 10.0 mi NNW 13.8 mph - N/A   Overcast
2:35 PM 37.4 °F 29.3 °F 23.0 °F 56% 29.76 in 10.0 mi NNW 12.7 mph - N/A   Overcast
2:55 PM 39.2 °F 30.8 °F 23.0 °F 52% 29.75 in 10.0 mi NW 15.0 mph 18.4 mph N/A   Overcast
3:15 PM 37.4 °F 29.8 °F 21.2 °F 52% 29.75 in 10.0 mi NW 11.5 mph - N/A   Mostly Cloudy
3:35 PM 37.4 °F 29.8 °F 23.0 °F 56% 29.75 in 10.0 mi NNW 11.5 mph 17.3 mph N/A   Overcast
3:55 PM 35.6 °F 27.5 °F 23.0 °F 60% 29.76 in 10.0 mi North 11.5 mph 17.3 mph N/A   Scattered Clouds
4:35 PM 35.6 °F 27.1 °F 23.0 °F 60% 29.76 in 10.0 mi NNW 12.7 mph - N/A   Scattered Clouds
4:55 PM 35.6 °F 27.5 °F 23.0 °F 60% 29.76 in 10.0 mi NW 11.5 mph 18.4 mph N/A   Mostly Cloudy
5:15 PM 35.6 °F 26.6 °F 23.0 °F 60% 29.76 in 10.0 mi NNW 13.8 mph - N/A   Overcast
5:35 PM 35.6 °F 27.5 °F 21.2 °F 56% 29.76 in 10.0 mi NNW 11.5 mph 17.3 mph N/A   Overcast
5:55 PM 35.6 °F 28.6 °F 23.0 °F 60% 29.77 in 10.0 mi NW 9.2 mph - N/A   Mostly Cloudy
6:35 PM 33.8 °F 27.0 °F 23.0 °F 65% 29.79 in 10.0 mi NNW 8.1 mph - N/A   Overcast
6:55 PM 33.8 °F 27.7 °F 23.0 °F 65% 29.79 in 10.0 mi NNW 6.9 mph - N/A   Mostly Cloudy
7:15 PM 33.8 °F 26.4 °F 23.0 °F 65% 29.79 in 10.0 mi NNW 9.2 mph - N/A   Overcast
7:35 PM 33.8 °F 27.7 °F 23.0 °F 65% 29.79 in 10.0 mi North 6.9 mph - N/A   Overcast
7:55 PM 33.8 °F 27.0 °F 21.2 °F 60% 29.79 in 10.0 mi North 8.1 mph - N/A   Overcast
8:15 PM 33.8 °F 28.6 °F 21.2 °F 60% 29.79 in 10.0 mi NNW 5.8 mph - N/A   Overcast
8:35 PM 33.8 °F 27.7 °F 21.2 °F 60% 29.79 in 10.0 mi NW 6.9 mph - N/A   Overcast
8:55 PM 33.8 °F 26.4 °F 21.2 °F 60% 29.79 in 10.0 mi NNW 9.2 mph - N/A   Overcast
9:15 PM 33.8 °F 26.4 °F 21.2 °F 60% 29.79 in 10.0 mi NW 9.2 mph - N/A   Overcast
9:35 PM 33.8 °F 24.8 °F 21.2 °F 60% 29.80 in 10.0 mi NW 12.7 mph - N/A   Mostly Cloudy
9:55 PM 33.8 °F 24.8 °F 21.2 °F 60% 29.79 in 10.0 mi NNW 12.7 mph 18.4 mph N/A   Overcast
10:15 PM 33.8 °F 25.3 °F 21.2 °F 60% 29.79 in 10.0 mi NW 11.5 mph - N/A   Overcast
10:35 PM 33.8 °F 26.4 °F 23.0 °F 65% 29.79 in 10.0 mi NNW 9.2 mph - N/A   Overcast
10:55 PM 32.0 °F 22.1 °F 23.0 °F 69% 29.79 in 10.0 mi NNW 13.8 mph 18.4 mph N/A   Overcast
11:15 PM 32.0 °F 23.0 °F 23.0 °F 69% 29.79 in 10.0 mi NNW 11.5 mph - N/A   Overcast
11:35 PM 32.0 °F 23.0 °F 23.0 °F 69% 29.79 in 10.0 mi NNW 11.5 mph - N/A   Overcast
11:55 PM 32.0 °F 23.0 °F 23.0 °F 69% 29.79 in 10.0 mi NW 11.5 mph - N/A   Mostly Cloudy